Theta_e
337 336 337 336 334 332 325 327 333 333 334 334 334 333 331 330 328 328 331 333 332 331 332 332 333 331 330 329 328 327 323 322 322 322 324 329 327 325 328 325 324 326 327
335 336 336 336 335 329 324 326 333 333 332 332 332 332 331 329 327 326 330 331 331 329 330 331 331 330 327 325 325 323 319 319 320 320 320 321 325 324 324 327 329 328 326
335 336 336 336 333 329 324 324 328 330 330 330 333 333 332 329 328 328 331 330 329 329 328 328 330 329 326 325 323 320 318 319 319 319 320 321 324 324 323 324 327 326 325
334 336 336 336 332 330 326 322 324 327 327 332 335 332 331 328 326 328 328 330 329 330 329 329 329 328 326 323 321 320 319 319 319 318 318 320 322 324 324 323 324 325 323
334 335 336 336 333 331 328 325 325 327 327 326 329 331 328 327 325 325 327 328 325 327 327 328 329 327 328 323 322 322 320 319 319 319 319 319 320 323 324 323 319 320 319
334 334 334 334 333 332 330 328 325 325 328 328 328 327 329 330 327 325 325 324 323 323 319 319 330 329 328 327 326 324 322 321 320 318 318 319 319 320 324 323 320 317 320
335 334 334 334 335 333 331 329 328 326 323 327 330 328 327 328 328 326 325 324 323 323 322 317 318 324 326 325 325 322 320 319 318 316 316 317 319 319 325 324 323 321 322
335 335 335 334 334 333 332 330 329 328 325 323 327 329 329 328 327 326 326 325 325 324 324 322 321 320 320 318 314 313 313 313 313 314 313 313 315 319 323 324 324 323 321
336 336 336 335 334 333 332 332 330 328 327 325 323 330 331 330 327 325 326 327 326 326 326 324 322 322 322 322 321 321 321 320 320 320 319 321 319 314 322 325 324 324 324
337 337 336 335 334 333 332 332 332 330 328 327 325 325 328 329 327 325 324 325 326 327 327 326 325 324 324 323 322 322 322 322 322 321 321 322 321 316 318 324 325 326 327
337 337 336 335 333 333 332 332 332 332 330 328 327 326 324 324 325 325 324 326 325 324 324 325 325 325 325 324 324 323 322 322 323 323 323 322 322 322 323 324 325 326 326
336 336 336 336 334 333 332 333 333 332 331 331 330 330 329 327 326 325 324 323 323 323 324 325 325 325 325 324 324 324 323 323 323 323 323 323 323 323 324 326 326 326 326
334 335 335 335 335 334 334 334 334 332 331 331 330 330 329 328 329 327 326 326 326 326 326 326 326 326 325 325 325 325 325 325 324 324 324 324 324 324 324 325 327 327 327
333 333 334 335 335 335 335 334 334 334 333 332 331 330 329 328 327 327 326 326 326 325 325 325 324 324 325 325 325 324 324 324 323 323 323 323 323 323 323 323 324 327 327
332 332 332 333 334 335 335 335 335 335 334 333 332 331 330 330 328 326 326 327 327 327 326 325 325 325 324 324 324 324 324 324 324 323 323 323 323 323 322 322 323 325 326
330 322 322 325 327 328 331 334 335 335 335 335 333 332 332 331 330 329 327 326 326 326 327 329 329 327 327 326 326 326 327 326 326 326 326 326 325 323 321 321 322 323 325
317 317 318 319 320 322 323 326 330 333 334 334 334 333 332 332 331 330 329 328 328 328 327 327 328 329 329 328 327 328 328 328 327 326 325 324 323 322 322 322 321 322 323
315 316 317 319 319 320 322 324 327 331 333 333 333 333 331 332 332 332 331 330 330 329 328 327 327 326 326 326 327 326 327 325 324 324 323 323 321 321 321 320 320 320 319
314 315 315 315 315 316 315 316 318 319 322 324 326 329 331 331 331 331 331 329 329 328 329 327 327 327 326 324 325 324 323 324 324 324 321 320 318 319 318 317 317 314 312
311 311 312 312 312 312 312 313 315 318 319 320 321 322 325 325 327 328 329 329 328 328 326 326 327 327 326 325 324 323 322 322 321 319 318 317 316 315 314 314 311 310 310
308 308 309 309 310 312 313 315 318 317 316 316 318 319 319 322 323 325 323 323 325 325 324 323 322 321 322 322 321 321 319 317 317 315 314 312 310 309 309 306 302 299 296
304 305 307 308 310 312 315 318 318 316 315 315 316 318 317 317 318 319 319 321 319 319 318 316 315 316 316 317 318 316 319 315 313 310 307 303 303 304 302 298 295 292 290
302 303 305 307 309 314 317 317 318 317 315 312 309 310 309 309 310 310 310 310 310 311 311 311 311 311 311 311 313 315 318 316 312 310 303 299 302 301 298 294 290 288 287
299 300 302 305 308 313 316 316 315 315 312 308 307 304 304 304 305 304 304 305 303 303 303 303 303 304 305 306 307 310 311 311 312 312 305 297 299 297 294 291 288 286 285
298 298 299 301 305 307 313 313 313 312 309 304 302 301 300 300 299 299 299 298 298 298 297 297 298 298 300 301 301 301 303 306 306 308 310 303 296 295 293 291 288 285 284
297 297 297 299 300 302 305 307 308 306 304 302 301 300 299 297 295 295 294 295 295 296 296 296 296 296 296 296 295 295 295 295 296 297 300 297 295 295 294 291 289 285 283
Wind_Speed
11 13 11 10 10 8 8 9 11 11 11 11 11 10 10 9 9 9 10 11 12 12 12 11 13 14 14 14 14 13 13 13 13 13 13 11 12 11 10 9 9 11 11
17 15 12 10 9 9 8 10 11 9 8 8 7 8 8 8 7 7 9 10 12 11 9 9 9 11 12 12 12 13 13 12 12 12 12 10 10 9 8 10 11 9 10
17 16 13 9 9 8 8 9 9 8 7 6 7 7 8 8 8 8 9 11 10 10 9 8 7 9 10 11 11 12 13 12 11 10 9 10 9 9 9 7 8 7 6
16 16 14 10 8 8 8 8 8 7 7 7 10 7 6 8 9 9 8 9 9 10 8 7 6 6 8 8 9 10 10 10 9 9 8 7 7 7 7 6 5 5 5
15 14 13 10 8 7 7 7 8 7 7 6 5 5 5 7 8 8 8 6 7 7 7 7 6 6 5 5 6 7 7 8 8 7 7 5 5 5 5 7 5 4 2
14 13 11 9 7 6 5 6 6 6 6 5 5 5 5 2 3 4 5 5 6 8 7 6 8 6 4 3 4 5 6 6 6 7 6 6 4 5 5 5 6 3 3
14 13 11 9 7 6 5 4 4 4 4 5 5 4 4 4 2 1 2 3 5 6 7 7 4 2 2 4 5 6 7 8 8 8 7 6 5 4 4 5 6 5 4
12 12 10 8 7 6 5 4 3 3 2 2 5 3 4 3 4 2 1 1 2 4 5 5 5 4 5 5 5 6 7 8 8 8 8 7 6 6 6 6 8 9 7
10 10 9 8 8 7 6 5 4 3 2 2 3 4 6 4 3 3 3 3 3 3 4 4 5 6 6 6 6 7 8 8 9 10 8 8 9 8 7 8 8 10 10
9 9 9 7 7 7 7 6 5 5 4 3 3 4 5 5 5 4 4 4 4 5 6 6 6 6 7 8 8 8 9 9 9 9 8 8 8 8 7 8 10 11 11
10 9 9 8 7 7 7 7 6 6 6 6 5 4 5 5 6 6 5 6 5 5 5 6 7 8 9 10 10 10 10 10 10 10 9 9 9 9 9 9 11 12 12
13 12 10 9 8 7 7 6 5 6 6 6 5 5 6 6 6 6 6 6 8 7 8 8 8 9 10 11 11 10 10 9 9 10 10 10 10 11 11 12 12 13 14
12 12 11 10 9 9 9 8 7 7 7 6 5 5 5 4 4 4 5 7 6 6 7 7 8 9 9 10 10 10 9 8 9 11 11 11 11 11 12 13 14 14 15
12 10 10 11 12 12 12 12 11 10 10 10 9 8 8 7 5 7 7 7 7 8 9 9 9 9 10 9 11 11 10 11 12 12 12 12 13 14 15 16 16 16 16
10 9 10 13 13 14 16 16 15 15 13 12 12 11 10 9 7 6 9 9 10 11 12 11 11 11 10 11 12 13 13 12 13 13 14 12 12 12 13 15 17 16 13
10 7 5 6 10 13 15 17 17 17 16 15 13 12 13 13 11 10 9 10 11 11 13 14 15 14 14 14 15 15 16 16 16 17 18 17 12 12 15 14 12 11 9
8 8 7 7 6 6 8 11 14 15 16 17 17 17 16 15 15 14 13 13 13 12 12 15 16 16 16 15 17 16 16 16 15 13 14 14 13 14 11 10 8 6 8
7 8 7 6 5 4 4 4 5 9 12 14 15 16 16 16 17 19 19 17 15 15 13 14 14 15 16 13 12 12 12 14 15 13 13 10 8 6 4 3 7 14 14
7 6 5 3 3 3 3 4 4 4 5 7 8 8 10 12 15 14 16 17 14 13 11 11 12 12 15 14 11 13 16 15 13 10 5 3 3 5 8 6 6 11 13
7 5 3 2 2 3 3 4 4 4 4 3 3 3 4 5 7 8 8 9 8 9 10 10 10 9 11 12 13 13 13 12 8 4 3 6 8 8 9 9 9 10 9
7 5 3 0 2 2 1 1 2 1 1 2 3 1 1 2 1 1 2 4 6 5 5 6 7 6 5 9 11 9 9 8 7 8 10 10 9 9 10 11 12 12 12
5 5 3 3 4 4 2 4 3 3 2 2 3 3 4 3 4 4 4 4 4 3 5 8 10 7 6 7 4 4 2 3 12 11 10 11 11 11 12 14 15 16 16
5 5 6 6 5 4 4 5 7 7 6 5 4 4 4 5 4 5 5 6 7 8 8 8 8 7 4 4 3 2 2 1 2 3 11 12 11 11 12 15 18 19 19
6 6 7 7 7 7 6 5 5 1 3 2 2 4 3 4 5 5 7 7 7 6 5 6 6 6 3 3 2 0 3 3 2 0 3 10 12 13 13 14 17 20 21
6 6 7 8 8 8 6 5 4 3 4 4 2 1 3 6 7 7 7 6 5 5 6 6 7 7 7 4 4 3 2 3 5 3 2 2 7 9 10 12 15 19 22
8 7 7 7 9 9 8 7 5 5 5 3 1 2 3 5 6 6 6 5 6 6 7 8 8 8 9 9 9 10 8 4 3 2 1 2 2 3 5 8 12 19 22
Wind_Direction
172 157 150 137 129 129 112 118 123 115 110 104 102 98 97 93 88 80 76 74 77 76 73 77 76 78 77 75 71 65 59 60 62 65 64 69 60 58 62 73 79 63 62
160 157 154 143 130 120 116 124 123 121 120 116 110 102 93 83 74 77 86 83 82 78 73 79 75 76 74 71 68 61 56 57 59 57 58 71 62 56 55 65 72 71 57
157 154 155 144 140 125 118 124 135 133 122 116 120 106 89 70 66 77 88 92 82 79 75 76 90 83 82 75 67 58 55 57 56 54 55 65 64 51 49 58 60 57 51
158 156 155 158 151 130 121 119 124 124 120 110 137 110 92 80 75 80 89 92 79 69 63 68 86 95 92 78 64 54 55 54 49 44 48 60 65 51 40 36 28 23 36
161 159 161 168 154 137 127 120 126 128 126 126 136 124 104 89 80 75 79 66 45 40 50 65 75 104 93 82 62 48 41 36 33 34 39 40 36 45 15 13 4 10 20
161 160 165 167 160 148 136 132 131 143 146 139 128 138 121 122 57 71 67 51 39 35 51 64 83 97 68 54 36 26 13 9 7 6 4 9 2 9 359 353 3 354 335
159 163 166 168 168 166 158 152 153 146 155 175 166 160 164 155 215 87 59 65 53 43 41 56 59 67 17 344 344 342 342 341 345 348 346 343 345 328 330 328 334 338 312
162 166 169 174 180 182 184 180 182 179 164 169 186 185 186 187 178 225 291 17 23 22 24 31 30 25 10 349 341 343 342 340 342 343 339 335 327 320 313 310 309 320 325
177 176 178 184 190 193 198 204 207 213 210 196 190 187 203 222 232 249 243 255 295 316 329 349 2 2 355 353 347 344 340 335 335 338 337 345 338 322 305 305 300 294 298
188 191 187 191 196 201 208 216 224 233 232 228 214 215 222 237 252 260 267 266 261 271 283 303 313 324 332 329 323 322 325 329 332 333 328 331 330 336 307 299 303 291 281
196 201 206 203 198 205 211 220 231 237 242 242 244 247 253 257 264 269 275 277 277 279 290 289 294 300 308 312 315 310 312 316 323 331 330 329 328 323 314 303 303 299 293
201 205 213 218 213 213 216 224 237 240 240 246 258 269 269 275 280 285 291 294 279 282 293 295 299 297 302 309 317 313 314 319 320 323 323 322 320 317 310 301 298 296 293
200 209 217 224 229 232 232 234 241 246 243 245 248 262 293 294 308 303 305 312 320 315 307 303 307 306 311 315 319 319 320 324 331 331 335 338 336 329 319 307 298 291 290
201 215 225 234 239 245 245 246 249 250 251 251 254 252 254 261 290 288 291 291 289 284 286 294 297 302 301 305 304 310 309 312 311 312 316 321 328 327 324 324 317 305 305
223 240 251 246 249 253 253 254 253 254 257 263 259 262 266 260 288 291 293 292 288 283 283 281 278 283 289 287 287 291 292 295 296 300 306 309 308 318 320 313 316 318 320
242 240 230 224 241 249 248 253 256 256 258 262 266 268 264 262 259 264 277 291 292 298 287 280 275 273 274 277 276 280 285 288 290 291 297 302 304 300 309 310 312 319 346
207 208 206 214 232 246 250 258 259 257 255 260 266 269 265 263 263 262 266 277 279 277 288 284 280 275 273 278 284 286 284 290 295 297 305 314 311 305 309 309 311 339 23
196 196 196 201 215 233 253 271 269 256 254 257 261 263 265 257 257 260 262 262 267 276 284 288 287 288 290 292 296 295 292 297 300 306 307 312 320 331 6 26 67 83 72
173 178 181 194 226 259 277 280 274 255 245 249 255 258 264 265 265 272 268 269 277 284 278 282 291 293 295 304 303 303 307 302 300 299 310 340 46 75 90 81 97 86 69
156 158 173 224 299 308 295 274 261 258 273 282 281 293 282 285 281 275 275 279 293 293 295 299 300 306 309 309 302 297 301 310 317 324 90 102 97 94 100 103 83 72 64
144 145 143 135 346 352 321 226 233 262 301 44 46 55 38 301 302 299 305 321 309 312 317 323 326 333 335 327 317 311 324 332 89 91 105 100 93 89 90 83 75 72 65
138 118 99 55 32 28 88 123 128 128 129 127 91 87 91 70 47 24 360 341 332 330 323 332 334 330 316 325 340 317 344 99 65 91 89 79 86 91 86 77 67 60 53
122 97 78 67 58 56 104 131 134 130 136 137 117 88 50 47 50 38 5 356 338 333 333 332 330 327 313 313 356 275 279 334 4 110 71 71 84 87 88 77 62 53 46
123 100 89 85 78 82 115 137 151 130 144 140 126 73 37 23 12 17 10 356 1 10 13 12 11 9 358 344 341 219 242 269 307 225 101 69 81 86 86 74 56 46 39
124 109 97 87 86 89 121 149 178 161 152 150 131 39 26 27 23 19 11 15 21 33 33 33 33 38 48 52 36 353 321 264 257 268 265 114 69 82 81 65 48 35 30
132 118 104 94 83 79 82 95 123 135 140 153 142 360 14 20 23 22 23 29 36 41 42 43 43 47 56 62 61 57 58 41 14 353 310 351 11 94 72 53 39 29 24